Погода в Шайменском

Россия / Костромская область     58°52′01″N   46°13′38″E
темп.,
°C
ветер,
м/с
пор.,
м/с
влажн.,
%
обл.,
%
осадки,
мм/ч
давл.,
гПа
погр.,
м
24 мая, вт
вт2400:00−1зсз2499100 1.0 999255
03:00−1ссз2599100 2.3 999309
06:000с2497100 1.1 1000363
09:00+2с25100100 2.8 1001294
12:00+3ссв25100100 1.4 1003364
15:00+4ссв239046 1.8 1005657
18:00+5с249125 0.4 1006598
21:00−1с119875 0.6 100810
25 мая, ср
ср2500:00+1ссз2498100 0.0 100898
03:00+1ссз2598100 0.0 1008137
06:00+3ссз239597 0.1 1009232
09:00+6ссз127954 0.6 1008903
12:00+7зсз2281100 1.5 1009798
15:00+7зсз2379100 3.6 1008941
18:00+6сз259299 1.6 1009680
21:00+4зсз2597100 2.2 1009280
26 мая, чт
чт2600:00+3з2698100 0.0 1009202
03:00+2з2599100 0.0 1008224
06:00+3з2597100 0.0 1008276
09:00+6юз358386 0.2 1007961
12:00+6зюз568794 0.7 1007951
15:00+5юз2697100 0.8 1007499
18:00+7ююз259188 0.3 1006611
21:00+4ююв249893 0.4 100694
27 мая, пт
пт2700:00+2ююв229929 0.0 100537
03:00+1юв259926 0.0 100496
06:00+5вюв389436 0.0 1002312
09:00+9вюв4890100 0.0 1000716
12:00+9вюв4989100 0.1 999673
15:00+7всв3898100 1.0 998496
18:00+7всв2599100 0.5 998299
21:00+7с11100100 1.3 99820
28 мая, сб
сб2800:00+7зюз25100100 0.2 999205
03:00+7ююз279996 0.3 1000292
06:00+8юз369573 0.0 1000319
09:00+11ююз5783100 0.1 1000794
12:00+11ю5990100 2.3 999950
15:00+9ююв3896100 4.0 998599
18:00+9юз51097100 4.6 997858
21:00+8юз4119767 4.7 999650